TimeEDT,TemperatureF,Dew PointF,Humidity,Sea Level PressureIn,VisibilityMPH,Wind Direction,Wind SpeedMPH,Gust SpeedMPH,PrecipitationIn,Events,Conditions,WindDirDegrees,DateUTC
12:53 AM,37.0,12.9,37,30.24,10.0,NNE,6.9,-,N/A,,Clear,30,2013-04-03 04:53:00
1:53 AM,36.0,12.9,39,30.25,10.0,NNE,5.8,-,N/A,,Clear,30,2013-04-03 05:53:00
2:53 AM,34.0,12.9,42,30.25,10.0,NE,3.5,-,N/A,,Clear,50,2013-04-03 06:53:00
3:53 AM,33.1,14.0,46,30.26,10.0,Variable,4.6,-,N/A,,Clear,0,2013-04-03 07:53:00
4:53 AM,32.0,12.9,45,30.27,10.0,NE,3.5,-,N/A,,Clear,40,2013-04-03 08:53:00
5:53 AM,30.9,12.9,47,30.27,10.0,NE,3.5,-,N/A,,Clear,50,2013-04-03 09:53:00
6:53 AM,30.9,12.9,47,30.27,10.0,Calm,Calm,-,N/A,,Clear,0,2013-04-03 10:53:00
7:53 AM,32.0,12.9,45,30.34,10.0,Calm,Calm,-,N/A,,Clear,0,2013-04-03 11:53:00
8:53 AM,36.0,17.1,46,30.35,10.0,Calm,Calm,-,N/A,,Clear,0,2013-04-03 12:53:00
9:53 AM,37.9,16.0,41,30.36,10.0,Variable,3.5,-,N/A,,Clear,0,2013-04-03 13:53:00
10:53 AM,41.0,15.1,35,30.37,10.0,Calm,Calm,-,N/A,,Clear,0,2013-04-03 14:53:00
11:53 AM,44.1,12.9,28,30.35,10.0,Variable,6.9,-,N/A,,Clear,0,2013-04-03 15:53:00
12:53 PM,46.0,14.0,28,30.33,10.0,Variable,4.6,-,N/A,,Clear,0,2013-04-03 16:53:00
1:53 PM,48.0,16.0,28,30.32,10.0,Variable,3.5,-,N/A,,Clear,0,2013-04-03 17:53:00
2:53 PM,50.0,12.9,23,30.32,10.0,NE,5.8,-,N/A,,Clear,40,2013-04-03 18:53:00
3:53 PM,50.0,10.9,21,30.32,10.0,Variable,5.8,-,N/A,,Clear,0,2013-04-03 19:53:00
4:53 PM,51.1,10.0,19,30.32,10.0,North,6.9,-,N/A,,Clear,360,2013-04-03 20:53:00
5:53 PM,50.0,8.1,18,30.31,10.0,Calm,Calm,-,N/A,,Clear,0,2013-04-03 21:53:00
6:53 PM,48.0,10.9,22,30.29,10.0,ENE,4.6,-,N/A,,Clear,60,2013-04-03 22:53:00
7:53 PM,45.0,9.0,23,30.28,10.0,Variable,4.6,-,N/A,,Clear,0,2013-04-03 23:53:00
8:53 PM,44.1,10.0,25,30.28,10.0,ENE,3.5,-,N/A,,Clear,60,2013-04-04 00:53:00
9:53 PM,42.1,8.1,25,30.30,10.0,NE,3.5,-,N/A,,Clear,50,2013-04-04 01:53:00
10:53 PM,39.9,9.0,28,30.31,10.0,NE,5.8,-,N/A,,Clear,40,2013-04-04 02:53:00
11:53 PM,39.0,10.0,30,30.30,10.0,NE,5.8,-,N/A,,Clear,40,2013-04-04 03:53:00